レモン彗星

C/2022 Y2 ( Lemmon )

English version
Home page
Updated on October 14, 2023

---------------------------------------------------------------------

・ プロフィール

発見日 2022年12月24日
発見光度 20.0等
発見者 Mt. Lemmon Survey

・ 写真集

・ 軌道要素

Epoch 2023 Feb. 25.0 TT = JDT 2460000.5
T 2023 Mar. 22.64036 TT                                 Rudenko
q   2.5449740            (2000.0)            P               Q
n   0.01131602     Peri.  105.55424     -0.33784549     +0.93007055
a  19.6489958      Node   216.34963     +0.74297502     +0.35767164
e   0.8704782      Incl.  165.90698     +0.57779628     +0.08390336
P  87.1
>From 164 observations 2022 Dec. 24-2023 Mar. 16, mean residual 0".6.

・ 光度変化

        m1 = 13.5 + 5 logΔ + 10.0 log r

---------------------------------------------------------------------

軌道要素はM.P.E.C. 2023-F81に掲載されたものです。
光度グラフはComet for Windowsで作成したものです。

---------------------------------------------------------------------

Copyright(C) Seiichi Yoshida (comet@aerith.net). All rights reserved.